[[{"header":{"parameterUnit":"m.s-1","parameterCategory":1,"la1":30.2991,"la2":30.254,"lo1":-89.0895,"lo2":-89.0444,"dy":0.0017,"dx":0.0017,"nx":28,"ny":28,"refTime":"2023-10-29T21:00:00:Z","depth":0,"parameterNumber":2,"parameterNumberName":"U-component_of_WINDS"},"data":[0,0,0,0,0,0,0,0,0,0,0,0,0,0,0,0,0,0,0,0,0,0,0,0,0,0,0,0,0,0,0,0,0,0,0,0,0,0,0,0,0,0,0,0,0,0,0,0,0,0,0,0,0,0,0,0,0,0,-2.7183,-2.7184,0,-2.7205,-2.7205,-2.7206,-2.7195,-2.7194,-2.7194,-2.7193,-2.7215,-2.7216,-2.7217,0,0,0,0,0,0,0,0,0,0,0,0,0,-2.7134,-2.7135,-2.7183,-2.7184,-2.7184,-2.7205,-2.7205,-2.7206,-2.7195,-2.7194,-2.7193,-2.7193,-2.7214,-2.7216,-2.7217,0,0,0,0,0,0,0,0,0,0,0,0,0,-2.7156,-2.7136,-2.7183,-2.7181,-2.7181,-2.7205,-2.7205,-2.7206,-2.7195,-2.7194,-2.7193,-2.7192,-2.7214,-2.7215,-2.7217,-2.7244,0,0,-2.7222,-2.7223,0,0,0,0,0,0,0,0,-2.7155,-2.7158,-2.7181,-2.7181,-2.7181,-2.7196,-2.7196,-2.7219,-2.7195,-2.719,-2.7193,-2.7192,-2.7209,-2.7211,-2.7217,-2.7245,-2.7246,-2.7222,-2.7223,-2.7224,-2.7224,0,0,0,0,0,0,0,-2.7153,-2.7157,-2.7192,-2.7182,-2.7182,-2.718,-2.7182,-2.72,-2.7204,-2.719,-2.7189,-2.7192,-2.7209,-2.7216,-2.7218,-2.7246,-2.7222,-2.7224,-2.7225,-2.7225,-2.73,-2.7301,0,0,0,0,0,0,-2.7152,-2.7155,-2.7191,-2.7193,-2.7166,-2.7181,-2.7183,-2.7192,-2.7204,-2.7205,-2.7193,-2.7192,-2.7213,-2.7216,-2.7218,-2.7251,-2.7224,-2.7226,-2.7227,-2.7299,-2.73,-2.7301,0,0,0,0,0,0,-2.7151,-2.7155,-2.719,-2.7174,-2.7178,-2.7183,-2.7193,-2.7193,-2.72,-2.7206,-2.7206,-2.7199,-2.7213,-2.7216,-2.7238,-2.7252,-2.7226,-2.7228,-2.7298,-2.7299,-2.7301,-2.7317,0,0,0,0,0,0,-2.7149,-2.7155,-2.7164,-2.7174,-2.7179,-2.7209,-2.7194,-2.7194,-2.7203,-2.7201,-2.7211,-2.7212,-2.7212,-2.7236,-2.724,-2.7254,-2.7229,-2.7296,-2.7298,-2.73,-2.7315,-2.7319,-2.7322,0,0,0,0,0,-2.7147,-2.7168,-2.7165,-2.7169,-2.7191,-2.721,-2.7213,-2.7213,-2.7204,-2.7214,-2.7218,-2.7212,-2.725,-2.7238,-2.7243,-2.7257,-2.7296,-2.7298,-2.73,-2.7314,-2.7318,-2.7322,0,0,0,0,0,0,-2.7158,-2.7169,-2.7166,-2.7189,-2.7199,-2.7208,-2.7221,-2.7217,-2.7229,-2.7227,-2.7227,-2.7229,-2.7253,-2.7257,-2.7244,-2.7285,-2.7272,-2.7275,-2.728,-2.7285,-2.7288,-2.7286,-2.723,0,0,0,0,0,-2.7163,-2.7178,-2.7186,-2.7207,-2.7212,-2.7216,-2.7224,-2.7223,-2.7233,-2.7237,-2.7243,-2.7253,-2.7267,-2.7276,-2.729,-2.7317,-2.7319,-2.7329,-2.7333,-2.7335,-2.7337,-2.7353,-2.7358,-2.7308,-2.7308,-2.7308,0,0,-2.7174,-2.7182,-2.719,-2.7209,-2.7216,-2.7232,-2.7219,-2.7235,-2.7247,-2.7239,-2.7261,-2.7266,-2.7277,-2.7302,-2.7313,-2.7307,-2.7352,-2.7338,-2.734,-2.7341,-2.7356,-2.7361,-2.7365,-2.731,-2.731,-2.7309,0,0,-2.7201,-2.7208,-2.7226,-2.7234,-2.7246,-2.7249,-2.7254,-2.7265,-2.7268,-2.729,-2.7285,-2.7299,-2.7324,-2.7332,-2.734,-2.7374,-2.7369,-2.7379,-2.7395,-2.741,-2.7414,-2.7418,-2.743,-2.7434,-2.7381,-2.7381,-2.7381,0,-2.7212,-2.7234,-2.7236,-2.7253,-2.7262,-2.7257,-2.7276,-2.7284,-2.73,-2.7306,-2.7299,-2.7331,-2.7338,-2.7366,-2.7374,-2.7381,-2.7386,-2.7376,-2.7414,-2.7417,-2.742,-2.7432,-2.7436,-2.7382,-2.7382,-2.7382,-2.7382,0,-2.7248,-2.7264,-2.7278,-2.7294,-2.7304,-2.7322,-2.7327,-2.7337,-2.7337,-2.7341,-2.7365,-2.7374,-2.739,-2.7397,-2.7396,-2.7425,-2.742,-2.7414,-2.74,-2.7426,-2.7437,-2.7441,-2.7384,-2.7383,-2.7383,-2.7383,0,0,-2.7279,-2.7298,-2.7302,-2.731,-2.7325,-2.7337,-2.7356,-2.7373,-2.7382,-2.7394,-2.741,-2.7433,-2.7427,-2.7436,-2.7437,-2.745,-2.7477,-2.7442,-2.7442,-2.7448,-2.751,-2.7514,-2.7519,-2.7475,-2.7476,-2.7476,-2.7509,0,-2.7306,-2.7338,-2.7342,-2.7371,-2.7386,-2.7384,-2.7401,-2.7412,-2.7417,-2.7432,-2.7438,-2.7454,-2.7445,-2.7451,-2.7465,-2.7471,-2.7489,-2.7469,-2.7489,-2.749,-2.7485,-2.7524,-2.7528,-2.7558,-2.7513,-2.7514,-2.7514,0,-2.7341,-2.7355,-2.7386,-2.7401,-2.7407,-2.7422,-2.7438,-2.7452,-2.7465,-2.7468,-2.748,-2.7479,-2.75,-2.7487,-2.7516,-2.7502,-2.7511,-2.7516,-2.7517,-2.7517,-2.7502,-2.7525,-2.7568,-2.7572,-2.7521,-2.7521,-2.752,0,-2.736,-2.7387,-2.7409,-2.7416,-2.7434,-2.7444,-2.7452,-2.7465,-2.7475,-2.749,-2.7497,-2.7514,-2.7522,-2.7536,-2.7541,-2.7531,-2.7569,-2.7557,-2.7572,-2.7572,-2.7578,-2.7577,-2.7622,-2.7587,-2.7587,-2.7587,-2.7586,0,-2.7389,-2.7408,-2.7418,-2.7432,-2.7453,-2.7458,-2.748,-2.7487,-2.7499,-2.7514,-2.7514,-2.7529,-2.7535,-2.7551,-2.7555,-2.7578,-2.7583,-2.7586,-2.7586,-2.7585,-2.7584,-2.7589,-2.7587,-2.7588,-2.7587,-2.7587,-2.7587,0,-2.7412,-2.742,-2.7444,-2.746,-2.7464,-2.748,-2.7493,-2.7507,-2.7513,-2.7533,-2.7538,-2.7548,-2.7567,-2.7574,-2.7597,-2.76,-2.7627,-2.7626,-2.7622,-2.7622,-2.7637,-2.7635,-2.7684,-2.7691,-2.7653,-2.7653,-2.7653,0,-2.743,-2.7444,-2.7462,-2.7473,-2.7481,-2.7498,-2.7509,-2.7516,-2.7527,-2.7545,-2.7557,-2.7576,-2.7592,-2.7623,-2.7632,-2.765,-2.765,-2.7666,-2.7652,-2.7651,-2.7649,-2.7648,-2.7649,-2.7668,-2.7668,-2.7668,-2.7669,0,-2.7459,-2.7463,-2.7479,-2.7497,-2.7511,-2.7525,-2.7539,-2.7548,-2.7557,-2.757,-2.759,-2.7602,-2.7627,-2.7646,-2.7665,-2.7674,-2.7673,-2.7674,-2.7678,-2.7676,-2.7672,-2.7674,-2.7628,-2.7672,-2.7671,-2.7671,-2.7671,-2.7671,-2.7479,-2.7493,-2.7508,-2.7527,-2.7538,-2.7552,-2.7566,-2.7575,-2.7592,-2.7613,-2.7616,-2.7638,-2.7653,-2.7679,-2.7689,-2.7706,-2.7702,-2.7708,-2.7709,-2.7711,-2.7711,-2.7671,-2.771,-2.771,-2.771,-2.771,-2.771,0,-2.7508,-2.7519,-2.7536,-2.7556,-2.7572,-2.7571,-2.7587,-2.76,-2.7619,-2.7634,-2.765,-2.7673,-2.7693,-2.7705,-2.7725,-2.7737,-2.7737,-2.7742,-2.774,-2.7742,-2.7715,-2.7708,-2.7741,-2.7741,-2.7741,-2.7741,-2.7741,-2.7741,-2.7525,-2.7548,-2.7554,-2.7584,-2.7595,-2.7616,-2.7625,-2.7639,-2.7651,-2.7677,-2.7694,-2.7702,-2.7717,-2.7738,-2.7756,-2.776,-2.7767,-2.7772,-2.7774,-2.7748,-2.7744,-2.7741,-2.7735,-2.7773,-2.7773,-2.7801,-2.7801,-2.7801]},{"header":{"parameterUnit":"m.s-1","parameterCategory":1,"la1":30.2991,"la2":30.254,"lo1":-89.0895,"lo2":-89.0444,"dy":0.0017,"dx":0.0017,"nx":28,"ny":28,"refTime":"2023-10-29T21:00:00:Z","depth":0,"parameterNumber":3,"parameterNumberName":"V-component_of_WINDS"},"data":[0,0,0,0,0,0,0,0,0,0,0,0,0,0,0,0,0,0,0,0,0,0,0,0,0,0,0,0,0,0,0,0,0,0,0,0,0,0,0,0,0,0,0,0,0,0,0,0,0,0,0,0,0,0,0,0,0,0,2.0434,2.0434,0,2.0415,2.0414,2.0414,2.043,2.043,2.0431,2.0432,2.0403,2.0401,2.04,0,0,0,0,0,0,0,0,0,0,0,0,0,2.0481,2.048,2.0434,2.0434,2.0434,2.0415,2.0414,2.0414,2.043,2.043,2.0431,2.0432,2.0403,2.0402,2.04,0,0,0,0,0,0,0,0,0,0,0,0,0,2.046,2.0479,2.0434,2.0439,2.044,2.0415,2.0414,2.0414,2.0429,2.043,2.0431,2.0432,2.0404,2.0402,2.04,2.0366,0,0,2.0393,2.0392,0,0,0,0,0,0,0,0,2.0462,2.0459,2.0439,2.0439,2.0439,2.0426,2.042,2.0398,2.0429,2.0433,2.0432,2.0433,2.0409,2.0407,2.04,2.0365,2.0364,2.0393,2.0392,2.0391,2.039,0,0,0,0,0,0,0,2.0463,2.046,2.0426,2.0438,2.0439,2.0441,2.044,2.0416,2.0415,2.0433,2.0434,2.0432,2.0409,2.0402,2.04,2.0363,2.0393,2.0391,2.039,2.0389,2.0304,2.0303,0,0,0,0,0,0,2.0465,2.0461,2.0427,2.0426,2.0454,2.044,2.0438,2.0429,2.0416,2.0415,2.0431,2.0433,2.0406,2.0402,2.0399,2.0362,2.0391,2.0389,2.0388,2.0305,2.0304,2.0303,0,0,0,0,0,0,2.0466,2.0462,2.0428,2.0444,2.044,2.0438,2.0428,2.0428,2.0421,2.0414,2.0414,2.0424,2.0406,2.0402,2.0376,2.0361,2.0388,2.0386,2.0306,2.0305,2.0304,2.0285,0,0,0,0,0,0,2.0467,2.0462,2.0449,2.0443,2.0439,2.0406,2.0427,2.0427,2.0419,2.0421,2.0408,2.0407,2.0407,2.0379,2.0374,2.0358,2.0384,2.0308,2.0306,2.0304,2.0287,2.0283,2.028,0,0,0,0,0,2.0469,2.0442,2.0449,2.0444,2.0424,2.0405,2.0402,2.0405,2.0417,2.0405,2.0402,2.0407,2.0364,2.0376,2.0371,2.0354,2.0309,2.0306,2.0304,2.0289,2.0284,2.028,0,0,0,0,0,0,2.0441,2.0441,2.0448,2.0419,2.0413,2.0408,2.0391,2.0399,2.0386,2.0388,2.039,2.0387,2.0361,2.0355,2.0369,2.0324,2.0338,2.0334,2.0328,2.0324,2.032,2.0321,2.0383,0,0,0,0,0,2.0433,2.042,2.0419,2.0394,2.0391,2.0392,2.0384,2.0388,2.038,2.0376,2.037,2.036,2.0345,2.0334,2.0319,2.0287,2.0286,2.0274,2.027,2.0267,2.0264,2.025,2.0245,2.0296,2.0296,2.0296,0,0,2.0413,2.0412,2.0402,2.0389,2.0384,2.037,2.0389,2.0372,2.0361,2.0372,2.0349,2.0345,2.0334,2.0307,2.0294,2.03,2.025,2.0264,2.0262,2.026,2.0247,2.0243,2.0238,2.0294,2.0294,2.0295,0,0,2.0371,2.0368,2.0348,2.0345,2.034,2.0342,2.0338,2.0333,2.0332,2.031,2.032,2.0307,2.0279,2.0272,2.0265,2.0228,2.0234,2.0223,2.0204,2.0191,2.0187,2.0183,2.0172,2.0167,2.022,2.022,2.022,0,2.0346,2.0327,2.0336,2.0321,2.0315,2.033,2.0311,2.0306,2.0294,2.029,2.0299,2.027,2.0263,2.0236,2.0228,2.0221,2.0216,2.0223,2.0187,2.0184,2.018,2.0169,2.0165,2.0219,2.0219,2.0219,2.0219,0,2.0298,2.0285,2.027,2.0264,2.0257,2.0239,2.0246,2.0238,2.0244,2.0245,2.0224,2.0218,2.0205,2.0199,2.0202,2.0174,2.0179,2.0187,2.0201,2.0174,2.0164,2.016,2.0217,2.0218,2.0218,2.0218,0,0,2.0232,2.0238,2.0232,2.0232,2.023,2.022,2.0204,2.0195,2.0189,2.0182,2.0169,2.015,2.016,2.0152,2.0156,2.0144,2.0119,2.0155,2.0155,2.0149,2.009,2.0083,2.0078,2.0124,2.0123,2.0123,2.0091,0,2.0191,2.0167,2.0178,2.0152,2.0141,2.0159,2.0146,2.0143,2.0145,2.0136,2.0138,2.0125,2.0138,2.0135,2.0124,2.0124,2.0107,2.0127,2.0111,2.011,2.0113,2.0072,2.0064,2.0034,2.0087,2.0086,2.0086,0,2.0138,2.0135,2.011,2.0116,2.0111,2.0099,2.0095,2.0086,2.0085,2.0087,2.0083,2.0091,2.0076,2.0093,2.0073,2.0086,2.0081,2.0081,2.008,2.0077,2.0095,2.0069,2.0024,2.002,2.0079,2.008,2.008,0,2.0095,2.0084,2.0069,2.0068,2.0073,2.0065,2.0067,2.0067,2.0063,2.0058,2.0056,2.0048,2.0044,2.0038,2.0044,2.0055,2.0024,2.0041,2.0026,2.0026,2.0016,2.0017,1.9971,2.0014,2.0014,2.0014,2.0014,0,2.0047,2.0031,2.0051,2.004,2.0024,2.0038,2.002,2.0024,2.0025,2.0016,2.003,2.0021,2.003,2.0022,2.0027,2.0011,2.0009,2.001,2.0012,2.0009,2.0009,2.0004,2.0006,2.0013,2.0013,2.0013,2.0014,0,1.9994,2.0007,1.9992,2.0001,2.0003,1.9991,1.9998,1.999,1.9996,1.9985,1.9983,1.9991,1.9984,1.9991,1.9981,1.9985,1.9965,1.9969,1.9966,1.9967,1.9953,1.9954,1.9901,1.9896,1.9943,1.9942,1.9942,0,1.9963,1.9952,1.9962,1.996,1.9962,1.9956,1.9954,1.9968,1.9965,1.9967,1.9958,1.9953,1.9948,1.9935,1.9939,1.9934,1.9938,1.992,1.9936,1.9936,1.9939,1.9939,1.9939,1.9916,1.9915,1.9915,1.9914,0,1.9906,1.9914,1.9912,1.9913,1.9911,1.9912,1.9913,1.9909,1.9925,1.9921,1.9915,1.9913,1.9908,1.9902,1.9899,1.9899,1.9909,1.991,1.9907,1.9903,1.9902,1.9904,1.9957,1.991,1.9911,1.9911,1.9911,1.9911,1.9863,1.9856,1.9864,1.9862,1.9866,1.9869,1.9863,1.9871,1.9868,1.9867,1.9876,1.9869,1.9873,1.9871,1.9871,1.9866,1.9873,1.9867,1.9865,1.9864,1.9863,1.9905,1.9865,1.9865,1.9865,1.9865,1.9865,0,1.9808,1.9816,1.9814,1.9819,1.9818,1.9833,1.9837,1.9835,1.983,1.9834,1.9832,1.9828,1.9825,1.9832,1.9829,1.9824,1.9829,1.9823,1.9823,1.9823,1.9855,1.9859,1.9819,1.9819,1.9819,1.9819,1.9819,1.9819,1.9779,1.9769,1.9779,1.9773,1.978,1.9777,1.9778,1.9781,1.9785,1.9781,1.978,1.9787,1.9793,1.9792,1.979,1.9792,1.9791,1.9783,1.9787,1.9816,1.982,1.9825,1.9829,1.9783,1.9783,1.9756,1.9755,1.9755]}]]